TimeCST,TemperatureF,Dew PointF,Humidity,Sea Level PressureIn,VisibilityMPH,Wind Direction,Wind SpeedMPH,Gust SpeedMPH,PrecipitationIn,Events,Conditions,WindDirDegrees,DateUTC
12:15 AM,36.0,30.0,79,29.89,10.0,WNW,11.5,-,N/A,,Clear,290,2013-02-14 06:15:00
12:35 AM,36.1,29.7,77,29.89,10.0,WNW,10.4,-,N/A,,Scattered Clouds,300,2013-02-14 06:35:00
12:55 AM,36.1,28.9,75,29.89,10.0,WNW,15.0,18.4,N/A,,Scattered Clouds,300,2013-02-14 06:55:00
1:15 AM,36.5,28.6,73,29.89,10.0,WNW,13.8,-,N/A,,Clear,300,2013-02-14 07:15:00
1:35 AM,35.6,28.2,75,29.90,10.0,WNW,12.7,-,N/A,,Clear,290,2013-02-14 07:35:00
1:55 AM,34.9,28.0,76,29.90,10.0,WNW,11.5,-,N/A,,Clear,300,2013-02-14 07:55:00
2:15 AM,34.3,27.9,77,29.90,10.0,WNW,10.4,-,N/A,,Clear,300,2013-02-14 08:15:00
2:35 AM,34.2,27.5,77,29.91,10.0,WNW,11.5,18.4,N/A,,Clear,300,2013-02-14 08:35:00
2:55 AM,33.6,27.5,78,29.92,10.0,WNW,10.4,-,N/A,,Clear,300,2013-02-14 08:55:00
3:15 AM,32.5,27.1,80,29.92,10.0,WNW,8.1,-,N/A,,Clear,300,2013-02-14 09:15:00
3:35 AM,32.5,27.5,82,29.93,10.0,WNW,9.2,-,N/A,,Clear,300,2013-02-14 09:35:00
3:55 AM,32.4,27.5,82,29.94,10.0,WNW,10.4,-,N/A,,Clear,290,2013-02-14 09:55:00
4:15 AM,31.6,26.6,82,29.92,10.0,West,6.9,-,N/A,,Clear,280,2013-02-14 10:15:00
4:35 AM,30.4,25.7,83,29.94,10.0,WNW,6.9,-,N/A,,Clear,290,2013-02-14 10:35:00
4:55 AM,29.8,25.2,83,29.94,10.0,West,6.9,-,N/A,,Clear,280,2013-02-14 10:55:00
5:15 AM,30.7,24.6,78,29.94,10.0,NW,6.9,-,N/A,,Clear,310,2013-02-14 11:15:00
5:35 AM,30.4,23.7,76,29.94,10.0,WNW,6.9,-,N/A,,Clear,300,2013-02-14 11:35:00
5:55 AM,29.7,22.6,75,29.94,10.0,WNW,5.8,-,N/A,,Clear,290,2013-02-14 11:55:00
6:15 AM,29.7,22.5,75,29.95,10.0,WNW,8.1,-,N/A,,Clear,300,2013-02-14 12:15:00
6:35 AM,28.9,22.1,76,29.95,10.0,WNW,8.1,-,N/A,,Clear,290,2013-02-14 12:35:00
6:55 AM,28.9,21.9,75,29.96,10.0,WNW,8.1,-,N/A,,Clear,290,2013-02-14 12:55:00
7:15 AM,29.3,21.7,73,29.96,10.0,NW,9.2,-,N/A,,Scattered Clouds,310,2013-02-14 13:15:00
7:35 AM,29.3,21.2,72,29.97,10.0,NW,9.2,-,N/A,,Clear,310,2013-02-14 13:35:00
7:55 AM,30.2,20.8,68,29.98,10.0,NW,9.2,-,N/A,,Scattered Clouds,310,2013-02-14 13:55:00
8:15 AM,32.0,21.2,64,29.99,10.0,NW,11.5,-,N/A,,Mostly Cloudy,320,2013-02-14 14:15:00
8:35 AM,32.5,21.2,63,29.99,10.0,NW,12.7,18.4,N/A,,Mostly Cloudy,320,2013-02-14 14:35:00
8:55 AM,33.3,21.2,61,30.01,10.0,NW,17.3,25.3,N/A,,Mostly Cloudy,310,2013-02-14 14:55:00
9:15 AM,33.8,21.9,62,30.01,10.0,NW,18.4,23.0,N/A,,Scattered Clouds,310,2013-02-14 15:15:00
9:35 AM,34.3,21.0,58,30.01,10.0,NW,23.0,40.3,N/A,,Mostly Cloudy,320,2013-02-14 15:35:00
9:55 AM,34.2,20.3,57,30.03,10.0,NW,21.9,35.7,N/A,,Scattered Clouds,310,2013-02-14 15:55:00
10:15 AM,34.9,19.8,54,30.02,10.0,NW,25.3,35.7,N/A,,Scattered Clouds,320,2013-02-14 16:15:00
10:35 AM,34.0,19.2,55,30.04,10.0,NW,31.1,39.1,N/A,,Scattered Clouds,320,2013-02-14 16:35:00
10:55 AM,34.2,19.6,55,30.03,10.0,NW,24.2,31.1,N/A,,Clear,320,2013-02-14 16:55:00
11:15 AM,34.7,20.3,56,30.04,10.0,NW,25.3,39.1,N/A,,Mostly Cloudy,310,2013-02-14 17:15:00
11:35 AM,34.2,19.4,55,30.05,10.0,NW,28.8,35.7,N/A,,Overcast,310,2013-02-14 17:35:00
11:55 AM,34.2,20.3,57,30.05,10.0,WNW,25.3,34.5,N/A,,Overcast,300,2013-02-14 17:55:00
12:15 PM,34.2,20.7,58,30.06,10.0,NW,31.1,38.0,N/A,,Overcast,310,2013-02-14 18:15:00
12:35 PM,33.8,21.2,60,30.05,10.0,NW,28.8,42.6,N/A,,Overcast,310,2013-02-14 18:35:00
12:55 PM,33.3,21.0,61,30.06,10.0,NW,39.1,48.3,N/A,,Overcast,310,2013-02-14 18:55:00
1:15 PM,32.5,21.6,64,30.06,10.0,NW,34.5,46.0,N/A,,Overcast,320,2013-02-14 19:15:00
1:35 PM,31.8,22.3,68,30.07,10.0,NW,31.1,46.0,N/A,,Overcast,310,2013-02-14 19:35:00
1:55 PM,30.4,21.9,71,30.08,10.0,NW,29.9,42.6,N/A,,Overcast,320,2013-02-14 19:55:00
2:15 PM,30.2,21.6,70,30.09,10.0,NW,32.2,46.0,N/A,Snow,Light Snow,320,2013-02-14 20:15:00
2:35 PM,29.8,21.4,71,30.10,7.0,NNW,40.3,50.6,N/A,,Overcast,330,2013-02-14 20:35:00
2:55 PM,29.7,19.6,66,30.12,10.0,NNW,36.8,54.1,N/A,,Overcast,340,2013-02-14 20:55:00
3:15 PM,28.8,18.5,66,30.14,10.0,NNW,40.3,48.3,N/A,,Overcast,340,2013-02-14 21:15:00
3:35 PM,28.6,19.9,70,30.15,7.0,NNW,31.1,42.6,N/A,,Overcast,330,2013-02-14 21:35:00
3:55 PM,28.9,20.3,70,30.17,10.0,NNW,35.7,43.7,N/A,,Overcast,340,2013-02-14 21:55:00
4:15 PM,28.9,19.6,68,30.19,10.0,NNW,28.8,40.3,N/A,,Overcast,340,2013-02-14 22:15:00
4:35 PM,27.9,19.2,70,30.20,10.0,NNW,26.5,35.7,N/A,,Overcast,340,2013-02-14 22:35:00
4:55 PM,28.2,17.6,64,30.21,10.0,NNW,27.6,40.3,N/A,,Mostly Cloudy,340,2013-02-14 22:55:00
5:15 PM,26.4,18.0,70,30.21,10.0,NNW,21.9,-,N/A,,Scattered Clouds,340,2013-02-14 23:15:00
5:35 PM,26.6,18.5,71,30.22,10.0,North,19.6,25.3,N/A,,Mostly Cloudy,350,2013-02-14 23:35:00
5:55 PM,26.2,18.7,73,30.22,10.0,North,20.7,-,N/A,Snow,Light Snow,350,2013-02-14 23:55:00
6:15 PM,26.1,19.2,75,30.23,10.0,North,16.1,-,N/A,,Overcast,350,2013-02-15 00:15:00
6:35 PM,24.6,18.7,78,30.24,10.0,North,13.8,-,N/A,,Mostly Cloudy,350,2013-02-15 00:35:00
6:55 PM,24.1,18.5,79,30.24,10.0,North,11.5,-,N/A,,Scattered Clouds,350,2013-02-15 00:55:00
7:15 PM,23.5,18.7,82,30.25,10.0,North,11.5,-,N/A,,Scattered Clouds,350,2013-02-15 01:15:00
7:35 PM,23.9,19.2,82,30.25,10.0,North,10.4,-,N/A,,Mostly Cloudy,350,2013-02-15 01:35:00
7:55 PM,23.5,18.5,81,30.26,10.0,North,12.7,-,N/A,,Mostly Cloudy,350,2013-02-15 01:55:00
8:15 PM,22.6,18.1,83,30.26,10.0,NNW,9.2,-,N/A,,Scattered Clouds,340,2013-02-15 02:15:00
8:35 PM,22.1,18.0,84,30.26,10.0,NNW,8.1,-,N/A,,Scattered Clouds,340,2013-02-15 02:35:00
8:55 PM,22.5,18.1,83,30.26,10.0,NNW,6.9,-,N/A,,Mostly Cloudy,340,2013-02-15 02:55:00
9:15 PM,21.6,17.4,84,30.26,10.0,NW,4.6,-,N/A,,Scattered Clouds,320,2013-02-15 03:15:00
9:35 PM,20.8,16.7,84,30.27,10.0,NNW,4.6,-,N/A,,Scattered Clouds,330,2013-02-15 03:35:00
9:55 PM,19.9,16.3,86,30.27,10.0,Calm,Calm,-,N/A,,Scattered Clouds,0,2013-02-15 03:55:00
10:15 PM,19.4,15.3,84,30.28,10.0,NW,3.5,-,N/A,,Clear,310,2013-02-15 04:15:00
10:35 PM,16.9,13.5,86,30.28,10.0,West,5.8,-,N/A,,Clear,270,2013-02-15 04:35:00
10:55 PM,17.4,14.0,86,30.28,10.0,WNW,4.6,-,N/A,,Clear,290,2013-02-15 04:55:00
11:15 PM,16.2,13.1,88,30.28,10.0,West,5.8,-,N/A,,Clear,260,2013-02-15 05:15:00
11:35 PM,15.3,12.2,88,30.28,10.0,WSW,6.9,-,N/A,,Clear,250,2013-02-15 05:35:00
11:55 PM,14.7,11.5,87,30.29,10.0,WSW,4.6,-,N/A,,Clear,250,2013-02-15 05:55:00